GPS BIIR-8 (PRN 16)

Last updated on Tue Jul 01 2025 00:03:13 GMT+0000 (Coordinated Universal Time)

1 27663U 03005A 25181.12603035 .00000009 00000+0 00000+0 0 9996 2 27663 54.9692 228.9601 0142507 50.2376 320.6348 2.00553553164253
UTC large
Height (km)
Speed (km/s)
/
Latitude / Longitude
Inclination (degrees)
Orbital Period (minutes)
Azimuth
Elevation
Range (km)
Doppler Factor

Next 0 passes for location: London (51.5072 / 0.1276)

Sorry there are no passes over London.